Weather in Malinovskiy

Russia / Altai Krai     52°57′42″N   80°48′13″E
temp.,
°C
wind,
m/s
gust,
m/s
humid.,
%
clouds,
%
prec.,
mm/h
press.,
hPa
HPBL,
m
8 may, sat
sat801:00+11nnw22488 0.0 101919
04:00+9nw335353 0.0 102031
07:00+9nw22574 0.0 102135
10:00+15wnw33384 0.0 1021595
13:00+19wnw34280 0.0 10201395
16:00+21nw45280 0.0 10191854
19:00+21nw45300 0.0 10191937
22:00+16wsw11410 0.0 101811
9 may, sun
sun901:00+14w22460 0.0 101811
04:00+13wsw33481 0.0 101817
07:00+12w22515 0.0 101822
10:00+18wnw22365 0.0 1017426
13:00+22n332886 0.0 10162065
16:00+22nne543026 0.0 10152477
19:00+19ne7740100 0.0 10151307
22:00+13ene81339100 0.0 1017564
10 may, mon
mon1001:00+11ene8144588 0.0 1018693
04:00+8ene71451100 0.0 1018642
07:00+7ene81455100 0.0 1018700
10:00+10ene91346100 0.0 1017862
13:00+15ene91231100 0.0 10151350
16:00+17ene91127100 0.0 10141736
19:00+16ne71132100 0.0 10131656
22:00+13ne6134085 0.0 1013494
11 may, tue
tue1101:00+10nne7145381 0.0 1014422
04:00+8nne61263100 0.0 1015376
07:00+8nne61168100 0.0 1016395
10:00+11nne6852100 0.0 1016725
13:00+16n56385 0.0 10161697
16:00+17n67335 0.0 10162236
19:00+16n873788 0.0 10172142
22:00+11n611544 0.0 1019469
12 may, wed
wed1201:00+8nnw486396 0.0 1020207
04:00+7nnw37745 0.0 1020167
07:00+7nnw36775 0.0 1021180
10:00+12n46505 0.0 10211194
13:00+15n56339 0.0 10202033
16:00+16n453051 0.0 10192246
19:00+16n4430100 0.0 10192187
22:00+12nne224493 0.0 102023